STARLINK-34105, 63977

Orbit data source: Space-Track

STARLINK-34105, 63977 is a payload satellite owned by SpaceX/Seattle (US) in LEO that was launched on Tue, 13 May 2025 UTC via an FALCON 9 launch vehicle from the Air Force Eastern Test Range (AFETR). Payload-class satellites include a variety of spacecraft equipped with specific instruments for various scientific and technological missions. These include communications satellites like Starlink; space stations such as the ISS; scientific satellites like the Hubble; Earth observation satellites from companies like Planet Labs, Umbra, and HawkEye 360; GPS; miniature CubeSats for education and research; and military/defense satellites.

Loading next visibility...
Identifier
63977, 2025-099AB
Orbit
LEO
Country
Flag of USUS
Related business
Manufacturer
SpaceX/Seattle
Mission
Operational Commercial Communications
Bus & Motor
STARLINK V2MO, Unknown motor
Mass
575 kg wet, ~530 kg dry
Launch date (UTC)
2025-05-13 (11 months ago)
Launch vehicle
FALCON 9
Launch site
Air Force Eastern Test Range (AFETR)
Object type
Payload
Rocket body
Debris
Shape & HBR
Box + 2 Pan, 17.7 m
Radar Cross Section
36.964 m², Large (>1 m²)

Expand to show TLE details & history
Last TLE update: 15 hours ago

TLE from 15 hours ago
0 STARLINK-34105
1 63977U 25099AB  26093.84909875  .00040119  00000-0  14604-2 0  9999
2 63977  42.9996  30.7046 0000197 355.9791   4.1059 15.27560515 51135
Epoch: 2026-04-03T20:22Z
TLE epoch observation values (Epoch: 2026-04-03T20:22:42.131Z)
Latitude
-0.00004°
Longitude
-107.14832°
Altitude
482.748 km
Speed
7.626 km/s
True Right ascension
02h 02m 49s
True Declination
0° 00' 00"
Sunlit
Object was in daylight at epoch
Visualization orbit readout
Latitude
Unknown
Longitude
Unknown
Altitude
Unknown
Speed
Unknown
Apparent Right ascension
Unknown
Apparent Declination
Unknown
Sunlit
N/A
Visualization observer readout
Local Sidereal Time
17:26:59
Azimuth
Unknown
Elevation
Unknown
Doppler factor
Unknown
Orbital elements
Apogee altitude
485.188 km
Perigee altitude
484.917 km
Semi-major axis
6,863.19 km
Eccentricity
0.00002
Inclination
42.9996°
RAAN
30.7046°
Arg. of periapsis
355.9791°
True anomaly
4.10606°
Mean anomaly
4.1059°
Eccentric anomaly
4.10598°
Mean motion
3.81728 °/min
Orbital period
94.31 mins
BSTAR
0.0014604
Loading maneuver chart data...
Computing Atmospheric mass density...
Loading historical data...
Loading historical data...
Loading historical data...
Loading historical data...
Loading historical data...
Loading historical data...
Loading historical data...

Documentation

Showing up to 5 results
|